Location: Unspecified
(0.0000°N, 0.0000°E)
Time: 16:59:35
(UTC+00:00)

CZ-4 DEB - Pass Details

Date: 20 June 2024
Orbit: 785 x 976 km, 99.1° (Epoch: 15 July)

Event Time Altitude Azimuth Distance (km) Brightness Sun altitude
Exits shadow 19:24:01 30° 102° (ESE) 1,644 ? -18.8°
Maximum altitude 19:25:24 33° 76° (ENE) 1,548 ? -19.1°
Drops below altitude 10° 19:30:47 10° 14° (NNE) 2,710 ? -20.3°
Sets 19:33:29 0° 5° (N) 3,659 ? -20.9°
